Location: Fort Wayne
(41.1310°N, 85.1290°W)
Time: 03:47:42
(UTC-04:00)

Tiros 1 despin weight - Visible Passes

Search period start: 27 July 2016 00:00
Search period end: 06 August 2016 00:00
Orbit: 596 x 644 km, 48.2° (Epoch: 26 July)

Date Brightness Start Highest point End Pass type
(mag) Time Alt. Az. Time Alt. Az. Time Alt. Az.
27 Jul ? 01:58:47 16° ENE 01:58:47 16° ENE 01:59:40 10° ENE visible
27 Jul ? 03:35:52 35° NW 03:37:01 42° NNW 03:41:15 10° ENE visible
27 Jul ? 05:15:17 10° WNW 05:19:18 33° N 05:23:20 10° ENE visible
28 Jul ? 02:14:56 26° NE 02:14:56 26° NE 02:16:58 10° ENE visible
28 Jul ? 03:52:00 19° WNW 03:54:32 34° N 03:58:36 10° ENE visible
28 Jul ? 05:32:41 10° WNW 05:36:51 38° NNE 05:41:01 10° E visible
29 Jul ? 02:31:05 38° NNE 02:31:05 38° NNE 02:34:13 10° ENE visible
29 Jul ? 04:08:09 10° WNW 04:12:06 32° N 04:16:07 10° ENE visible
29 Jul ? 05:49:58 10° WNW 05:54:20 52° NNE 05:58:39 10° E visible
30 Jul ? 02:47:14 38° NNW 02:47:20 38° NNW 02:51:31 10° ENE visible
30 Jul ? 04:25:34 10° WNW 04:29:40 35° N 04:33:45 10° ENE visible
31 Jul ? 01:26:20 15° NE 01:26:20 15° NE 01:27:11 10° ENE visible
31 Jul ? 03:03:25 26° NW 03:04:53 33° N 03:08:56 10° ENE visible
31 Jul ? 04:42:55 10° WNW 04:47:11 43° NNE 04:51:25 10° E visible
01 Aug ? 01:42:34 23° NE 01:42:34 23° NE 01:44:27 10° ENE visible
01 Aug ? 03:19:40 17° NW 03:22:27 33° N 03:26:30 10° ENE visible
01 Aug ? 05:00:11 10° WNW 05:04:37 63° NNE 05:08:59 10° ESE visible
02 Aug ? 01:58:58 29° NNE 01:58:58 29° NNE 02:01:47 10° ENE visible
02 Aug ? 03:36:04 11° NW 03:40:00 38° NNE 03:44:09 10° E visible
02 Aug ? 05:17:27 10° WNW 05:21:54 80° SSW 05:26:19 10° SE visible
02 Aug ? 22:47:06 10° SSW 22:51:25 43° SE 22:51:32 43° SE visible
03 Aug ? 00:28:34 10° W 00:38:39 - ENE 00:28:55 12° W visible
03 Aug ? 02:15:48 31° NNE 02:15:48 31° NNE 02:19:16 10° ENE visible
03 Aug ? 03:53:07 10° WNW 03:57:29 50° NNE 04:01:48 10° E visible
03 Aug ? 05:34:51 10° WNW 05:39:04 43° SW 05:43:15 10° SE visible
03 Aug ? 21:24:42 10° S 21:27:31 16° SE 21:30:17 10° E visible
03 Aug ? 23:04:00 10° SW 23:08:35 78° SSE 23:11:36 21° ENE visible
04 Aug ? 00:46:13 10° W 00:56:37 - ENE 00:48:52 29° WNW visible
04 Aug ? 02:33:54 30° NE 02:33:54 30° NE 02:36:53 10° ENE visible
04 Aug ? 04:11:11 15° WNW 04:14:51 78° NNE 04:19:16 10° ESE visible
04 Aug ? 05:52:36 10° W 05:56:05 23° SW 05:59:32 10° S visible
04 Aug ? 21:40:25 10° SSW 21:44:28 31° SE 21:48:28 10° ENE visible
04 Aug ? 23:21:19 10° WSW 23:25:52 65° NNW 23:29:44 14° ENE visible
05 Aug ? 01:03:53 10° WNW 01:06:53 29° NW 01:06:53 29° NW visible
05 Aug ? 02:53:55 14° E 02:53:55 14° E 02:54:34 10° E visible
05 Aug ? 04:31:17 51° W 04:32:05 61° SW 04:36:26 10° SE visible
05 Aug ? 06:11:40 10° WSW 06:12:57 11° SW 06:14:15 10° SSW visible
05 Aug ? 21:57:02 10° SW 22:01:33 57° SE 22:06:01 10° ENE visible
05 Aug ? 23:38:54 10° W 23:43:17 45° NNW 23:46:35 16° NE visible
